DL6MAA-11 Weather Reports


time (UTC)temp
C
wind
direction
speed
KPH
gust
KPH
rain 1hr
cm
rain 24hr
cm
rain mn
cm
humidity
%
barometer
mb
20190420081241 13 24 1.6 0.0 0.00 0.00 0.00 56 1025.1
20190420080736 12 11 1.6 0.0 0.00 0.00 0.00 56 1025.1
20190420080235 12 74 1.6 0.0 0.00 0.00 0.00 56 1025.1
20190420075735 12 355 1.6 0.0 0.00 0.00 0.00 56 1025.3
20190420075225 12 351 1.6 0.0 0.00 0.00 0.00 56 1025.3
20190420074732 12 34 1.6 0.0 0.00 0.00 0.00 56 1025.3
20190420074232 11 14 1.6 0.0 0.00 0.00 0.00 56 1025.2
20190420073744 11 11 1.6 0.0 0.00 0.00 0.00 56 1025.2
20190420073226 11 355 0.0 0.0 0.00 0.00 0.00 59 1025.2
20190420072738 10 355 0.0 0.0 0.00 0.00 0.00 73 1025.4
20190420072225 10 355 1.6 0.0 0.00 0.00 0.00 73 1025.4
20190420071734 10 355 0.0 0.0 0.00 0.00 0.00 73 1025.4
20190420071243 10 54 0.0 0.0 0.00 0.00 0.00 73 1025.4
20190420070732 9 54 0.0 0.0 0.00 0.00 0.00 73 1025.4
20190420070223 8 54 0.0 0.0 0.00 0.00 0.00 73 1025.4
20190420065731 8 54 0.0 0.0 0.00 0.00 0.00 73 1025.5
20190420065235 8 54 1.6 0.0 0.00 0.00 0.00 73 1025.5
20190420064724 8 96 0.0 0.0 0.00 0.00 0.00 73 1025.5
20190420064231 7 98 0.0 0.0 0.00 0.00 0.00 73 1025.3
20190420063743 7 98 0.0 0.0 0.00 0.00 0.00 73 1025.3
20190420063237 6 98 0.0 0.0 0.00 0.00 0.00 73 1025.3
20190420062727 6 98 0.0 0.0 0.00 0.00 0.00 73 1025.3
20190420062238 6 98 0.0 0.0 0.00 0.00 0.00 74 1025.3
20190420061722 6 98 0.0 0.0 0.00 0.00 0.00 76 1025.3
20190420061235 5 98 0.0 0.0 0.00 0.00 0.00 76 1025.5
20190420060724 5 98 0.0 0.0 0.00 0.00 0.00 77 1025.5
20190420060233 5 360 0.0 0.0 0.00 0.00 0.00 78 1025.5
20190420055736 5 98 0.0 0.0 0.00 0.00 0.00 78 1024.6
20190420055227 5 98 0.0 0.0 0.00 0.00 0.00 80 1024.6
20190420054728 4 98 0.0 0.0 0.00 0.00 0.00 81 1024.6
20190420054233 3 98 0.0 0.0 0.00 0.00 0.00 81 1025.4
20190420053740 3 98 0.0 0.0 0.00 0.00 0.00 83 1025.4
20190420053244 3 98 0.0 0.0 0.00 0.00 0.00 84 1025.4
20190420052726 2 98 0.0 0.0 0.00 0.00 0.00 86 1024.8
20190420052227 2 98 1.6 0.0 0.00 0.00 0.00 88 1024.8
20190420051734 1 98 0.0 0.0 0.00 0.00 0.00 87 1024.8
20190420051235 1 98 0.0 0.0 0.00 0.00 0.00 87 1024.7
20190420050734 1 98 0.0 0.0 0.00 0.00 0.00 86 1024.7
20190420050241 1 98 0.0 0.0 0.00 0.00 0.00 85 1024.7
20190420045729 1 98 0.0 0.0 0.00 0.00 0.00 85 1024.4
20190420045243 1 98 0.0 0.0 0.00 0.00 0.00 85 1024.4
20190420044731 1 98 0.0 0.0 0.00 0.00 0.00 85 1024.4
20190420044227 1 98 0.0 0.0 0.00 0.00 0.00 84 1024.8
20190420043738 1 98 0.0 0.0 0.00 0.00 0.00 84 1024.8
20190420043240 1 98 0.0 0.0 0.00 0.00 0.00 84 1024.8
20190420042727 1 98 0.0 0.0 0.00 0.00 0.00 83 1024.8
20190420042231 1 98 0.0 0.0 0.00 0.00 0.00 83 1024.8
20190420041735 1 98 0.0 0.0 0.00 0.00 0.00 82 1024.8
20190420041245 1 98 0.0 0.0 0.00 0.00 0.00 82 1024.9
20190420040741 1 98 0.0 0.0 0.00 0.00 0.00 81 1024.9
20190420040224 1 101 0.0 0.0 0.00 0.00 0.00 81 1024.9
20190420035731 1 97 0.0 0.0 0.00 0.00 0.00 81 1024.9
20190420035235 1 98 0.0 0.0 0.00 0.00 0.00 81 1024.9
20190420034736 2 98 0.0 0.0 0.00 0.00 0.00 81 1024.9
20190420034241 1 98 0.0 0.0 0.00 0.00 0.00 81 1024.5
20190420033729 2 98 0.0 0.0 0.00 0.00 0.00 81 1024.5
20190420033225 2 98 0.0 0.0 0.00 0.00 0.00 81 1024.5
20190420032730 2 98 0.0 0.0 0.00 0.00 0.00 81 1024.5
20190420032237 2 98 0.0 0.0 0.00 0.00 0.00 81 1024.5
20190420031723 2 98 0.0 0.0 0.00 0.00 0.00 81 1024.5
20190420031223 2 98 0.0 0.0 0.00 0.00 0.00 80 1024.5
20190420030734 2 98 0.0 0.0 0.00 0.00 0.00 80 1024.5
20190420030225 2 98 0.0 0.0 0.00 0.00 0.00 80 1024.5
20190420025739 2 97 0.0 0.0 0.00 0.00 0.00 80 1024.5
20190420025241 2 97 0.0 0.0 0.00 0.00 0.00 81 1024.5
20190420024731 2 97 0.0 0.0 0.00 0.00 0.00 81 1024.5
20190420024226 2 97 0.0 0.0 0.00 0.00 0.00 81 1024.5
20190420023733 2 98 0.0 0.0 0.00 0.00 0.00 80 1024.5
20190420023245 2 101 0.0 0.0 0.00 0.00 0.00 80 1024.5
20190420022732 2 98 0.0 0.0 0.00 0.00 0.00 79 1024.5
20190420022225 2 96 0.0 0.0 0.00 0.00 0.00 79 1024.5
20190420021737 2 96 0.0 0.0 0.00 0.00 0.00 79 1024.5
20190420021243 2 28 0.0 0.0 0.00 0.00 0.00 78 1024.5
20190420020728 2 29 0.0 0.0 0.00 0.00 0.00 78 1024.5
20190420020239 2 28 0.0 0.0 0.00 0.00 0.00 78 1024.5
20190420015729 2 28 0.0 0.0 0.00 0.00 0.00 78 1024.3
20190420015238 3 28 0.0 0.0 0.00 0.00 0.00 77 1024.3
20190420014725 3 29 0.0 0.0 0.00 0.00 0.00 77 1024.3
20190420014233 3 28 0.0 0.0 0.00 0.00 0.00 76 1024.4
20190420013730 3 28 0.0 0.0 0.00 0.00 0.00 76 1024.4
20190420013242 3 28 0.0 0.0 0.00 0.00 0.00 76 1024.4
20190420012742 3 28 0.0 0.0 0.00 0.00 0.00 75 1024.3
20190420012227 3 28 0.0 0.0 0.00 0.00 0.00 75 1024.3
20190420011733 3 28 0.0 0.0 0.00 0.00 0.00 74 1024.3
20190420011242 3 28 0.0 0.0 0.00 0.00 0.00 74 1024.3
20190420010726 3 28 0.0 0.0 0.00 0.00 0.00 74 1024.3
20190420010232 3 29 0.0 0.0 0.00 0.00 0.00 74 1024.3
20190420005739 3 28 0.0 0.0 0.00 0.00 0.00 75 1024.2
20190420005239 3 28 0.0 0.0 0.00 0.00 0.00 75 1024.2
20190420004742 3 29 0.0 0.0 0.00 0.00 0.00 75 1024.2
20190420004243 3 27 0.0 0.0 0.00 0.00 0.00 74 1024.4
20190420003745 3 27 0.0 0.0 0.00 0.00 0.00 73 1024.4
20190420003232 4 27 0.0 0.0 0.00 0.00 0.00 71 1024.4
20190420002741 4 27 0.0 0.0 0.00 0.00 0.00 71 1024.6
20190420002242 4 27 0.0 0.0 0.00 0.00 0.00 71 1024.6
20190420001726 4 27 0.0 0.0 0.00 0.00 0.00 70 1024.6
20190420001228 4 27 0.0 0.0 0.00 0.00 0.00 70 1024.5
20190420000733 4 28 0.0 0.0 0.00 0.00 0.00 69 1024.5
20190420000238 5 27 0.0 0.0 0.00 0.00 0.00 69 1024.5
20190419235728 5 27 0.0 0.0 0.00 0.00 0.00 68 1024.6
20190419235236 5 27 0.0 0.0 0.00 0.00 0.00 68 1024.6
20190419234737 5 27 0.0 0.0 0.00 0.00 0.00 68 1024.6
20190419234239 5 27 0.0 0.0 0.00 0.00 0.00 67 1024.8
20190419233738 5 27 0.0 0.0 0.00 0.00 0.00 66 1024.8
20190419233233 5 27 0.0 0.0 0.00 0.00 0.00 65 1024.8
20190419232733 5 27 0.0 0.0 0.00 0.00 0.00 64 1024.8
20190419232355 5 27 0.0 0.0 0.00 0.00 0.00 63 1024.8
20190419231744 5 27 0.0 0.0 0.00 0.00 0.00 63 1024.8
20190419231229 6 27 0.0 0.0 0.00 0.00 0.00 62 1024.6
20190419230742 6 28 0.0 0.0 0.00 0.00 0.00 62 1024.6
20190419230230 6 27 0.0 0.0 0.00 0.00 0.00 61 1024.6
20190419225735 6 27 0.0 0.0 0.00 0.00 0.00 61 1024.6
20190419225238 6 27 0.0 0.0 0.00 0.00 0.00 61 1024.6
20190419224740 6 27 0.0 0.0 0.00 0.00 0.00 60 1024.6
20190419224232 6 27 0.0 0.0 0.00 0.00 0.00 60 1024.8
20190419223736 6 27 0.0 0.0 0.00 0.00 0.00 59 1024.8
20190419223227 7 27 0.0 0.0 0.00 0.00 0.00 60 1024.8
20190419222739 7 27 0.0 0.0 0.00 0.00 0.00 60 1024.8
20190419222228 7 27 0.0 0.0 0.00 0.00 0.00 57 1024.8
20190419221739 7 28 0.0 0.0 0.00 0.00 0.00 56 1024.8
20190419221232 7 28 0.0 0.0 0.00 0.00 0.00 56 1024.8
20190419220738 7 27 0.0 0.0 0.00 0.00 0.00 55 1024.8
20190419220234 7 27 0.0 0.0 0.00 0.00 0.00 55 1024.8
20190419215724 8 27 0.0 0.0 0.00 0.00 0.00 54 1024.7
20190419215232 8 27 0.0 0.0 0.00 0.00 0.00 53 1024.7
20190419214723 8 28 0.0 0.0 0.00 0.00 0.00 53 1024.7
20190419214236 8 27 0.0 0.0 0.00 0.00 0.00 52 1024.9
20190419213741 8 27 0.0 0.0 0.00 0.00 0.00 51 1024.9
20190419213232 8 27 0.0 0.0 0.00 0.00 0.00 51 1024.9
20190419212724 9 27 0.0 0.0 0.00 0.00 0.00 50 1024.9
20190419212230 9 27 0.0 0.0 0.00 0.00 0.00 50 1024.9
20190419211738 9 27 0.0 0.0 0.00 0.00 0.00 48 1024.9
20190419211234 10 27 0.0 0.0 0.00 0.00 0.00 47 1024.8
20190419210742 10 27 0.0 0.0 0.00 0.00 0.00 47 1024.8
20190419210231 10 28 0.0 0.0 0.00 0.00 0.00 46 1024.8
20190419205740 10 27 0.0 0.0 0.00 0.00 0.00 46 1024.8
20190419205231 10 27 0.0 0.0 0.00 0.00 0.00 45 1024.8
20190419204730 10 27 0.0 0.0 0.00 0.00 0.00 45 1024.8
20190419204229 10 28 0.0 0.0 0.00 0.00 0.00 44 1024.9
20190419203728 10 27 0.0 0.0 0.00 0.00 0.00 44 1024.9
20190419203238 11 28 0.0 0.0 0.00 0.00 0.00 43 1024.9
20190419202744 11 27 0.0 0.0 0.00 0.00 0.00 43 1024.9
20190419202233 11 27 0.0 0.0 0.00 0.00 0.00 42 1024.9
20190419201739 11 27 0.0 0.0 0.00 0.00 0.00 42 1024.9
20190419201245 11 27 0.0 0.0 0.00 0.00 0.00 41 1024.9
20190419200725 11 27 0.0 0.0 0.00 0.00 0.00 41 1024.9
20190419200230 11 27 0.0 0.0 0.00 0.00 0.00 41 1024.9
20190419195739 11 27 0.0 0.0 0.00 0.00 0.00 41 1024.7
20190419195227 12 27 0.0 0.0 0.00 0.00 0.00 40 1024.7
20190419194732 12 27 0.0 0.0 0.00 0.00 0.00 40 1024.7
20190419194240 12 27 0.0 0.0 0.00 0.00 0.00 40 1025.2
20190419193729 12 27 0.0 0.0 0.00 0.00 0.00 40 1025.2
20190419193229 12 27 0.0 0.0 0.00 0.00 0.00 39 1025.2
20190419192743 12 27 0.0 0.0 0.00 0.00 0.00 39 1025.0
20190419192244 12 27 0.0 0.0 0.00 0.00 0.00 38 1025.0
20190419191744 13 27 0.0 0.0 0.00 0.00 0.00 39 1025.0
20190419191228 13 26 0.0 0.0 0.00 0.00 0.00 38 1024.8
20190419190741 13 26 0.0 0.0 0.00 0.00 0.00 38 1024.8
20190419190225 13 26 0.0 0.0 0.00 0.00 0.00 37 1024.8
20190419185740 13 26 0.0 0.0 0.00 0.00 0.00 37 1024.5
20190419185228 13 26 0.0 0.0 0.00 0.00 0.00 37 1024.5
20190419184736 14 26 1.6 0.0 0.00 0.00 0.00 36 1024.5
20190419184242 14 26 1.6 0.0 0.00 0.00 0.00 37 1024.8
20190419183742 14 25 1.6 0.0 0.00 0.00 0.00 36 1024.8
20190419183227 15 23 0.0 0.0 0.00 0.00 0.00 36 1024.8
20190419182747 15 22 1.6 0.0 0.00 0.00 0.00 35 1024.8
20190419182243 15 24 1.6 0.0 0.00 0.00 0.00 34 1024.8
20190419181737 15 21 1.6 0.0 0.00 0.00 0.00 33 1024.8
20190419181232 15 12 1.6 0.0 0.00 0.00 0.00 33 1024.6
20190419180733 16 5 1.6 0.0 0.00 0.00 0.00 32 1024.6
20190419180232 16 22 3.2 0.0 0.00 0.00 0.00 32 1024.6
20190419175730 16 44 3.2 0.0 0.00 0.00 0.00 32 1024.5
20190419175227 16 42 3.2 0.0 0.00 0.00 0.00 31 1024.5
20190419174726 16 32 3.2 0.0 0.00 0.00 0.00 30 1024.5
20190419174240 16 11 4.8 0.0 0.00 0.00 0.00 29 1023.8
20190419173741 16 36 4.8 0.0 0.00 0.00 0.00 30 1023.8
20190419173224 16 28 4.8 0.0 0.00 0.00 0.00 30 1023.8
20190419172737 16 67 4.8 0.0 0.00 0.00 0.00 31 1024.4
20190419172241 17 34 4.8 0.0 0.00 0.00 0.00 32 1024.4
20190419171741 17 24 4.8 0.0 0.00 0.00 0.00 30 1024.4
20190419171225 17 28 4.8 0.0 0.00 0.00 0.00 30 1024.3
20190419170735 17 16 4.8 0.0 0.00 0.00 0.00 30 1024.3
20190419170239 18 13 4.8 0.0 0.00 0.00 0.00 28 1024.3
20190419165743 18 20 4.8 0.0 0.00 0.00 0.00 27 1024.1
20190419165233 18 39 4.8 0.0 0.00 0.00 0.00 28 1024.1
20190419164737 19 51 3.2 0.0 0.00 0.00 0.00 27 1024.1
20190419164236 19 24 4.8 0.0 0.00 0.00 0.00 29 1024.3
20190419163730 19 44 6.4 0.0 0.00 0.00 0.00 27 1024.3
20190419163241 20 51 6.4 0.0 0.00 0.00 0.00 26 1024.3
20190419162729 20 360 6.4 0.0 0.00 0.00 0.00 25 1024.1
20190419162229 20 53 6.4 0.0 0.00 0.00 0.00 26 1024.1
20190419161743 20 53 6.4 0.0 0.00 0.00 0.00 26 1024.1
20190419161227 20 35 6.4 0.0 0.00 0.00 0.00 28 1024.0
20190419160737 21 44 4.8 0.0 0.00 0.00 0.00 26 1024.0
20190419160238 21 5 4.8 0.0 0.00 0.00 0.00 25 1024.0
20190419155726 22 9 8.0 0.0 0.00 0.00 0.00 24 1024.0
20190419155235 22 27 8.0 0.0 0.00 0.00 0.00 24 1024.0
20190419154731 22 71 6.4 0.0 0.00 0.00 0.00 23 1024.0
20190419154228 22 355 4.8 0.0 0.00 0.00 0.00 24 1023.8
20190419153736 22 82 4.8 0.0 0.00 0.00 0.00 26 1023.8
20190419153227 22 34 4.8 0.0 0.00 0.00 0.00 23 1023.8
20190419152738 22 26 6.4 0.0 0.00 0.00 0.00 24 1023.9
20190419152246 22 26 6.4 0.0 0.00 0.00 0.00 25 1023.9
20190419151736 22 360 8.0 0.0 0.00 0.00 0.00 22 1023.9
20190419151242 22 355 6.4 0.0 0.00 0.00 0.00 22 1023.9
20190419150731 22 42 6.4 0.0 0.00 0.00 0.00 23 1023.9
20190419150238 22 52 6.4 0.0 0.00 0.00 0.00 25 1023.9
20190419145729 22 69 6.4 0.0 0.00 0.00 0.00 23 1023.9
20190419145238 22 360 4.8 0.0 0.00 0.00 0.00 22 1023.9
20190419144732 22 38 4.8 0.0 0.00 0.00 0.00 23 1023.9
20190419144243 22 40 6.4 0.0 0.00 0.00 0.00 25 1023.9
20190419143737 22 83 8.0 0.0 0.00 0.00 0.00 23 1023.9
20190419143228 22 59 8.0 0.0 0.00 0.00 0.00 23 1023.9
20190419142736 22 16 4.8 0.0 0.00 0.00 0.00 27 1024.1
20190419142243 22 32 4.8 0.0 0.00 0.00 0.00 30 1024.1
20190419141732 22 21 4.8 0.0 0.00 0.00 0.00 24 1024.1
20190419141239 22 360 4.8 0.0 0.00 0.00 0.00 25 1024.2
20190419140727 21 33 6.4 0.0 0.00 0.00 0.00 24 1024.2
20190419140241 21 44 6.4 0.0 0.00 0.00 0.00 24 1024.2
20190419135730 21 315 6.4 0.0 0.00 0.00 0.00 26 1024.3
20190419135237 21 14 6.4 0.0 0.00 0.00 0.00 26 1024.3
20190419134726 21 57 6.4 0.0 0.00 0.00 0.00 27 1024.3
20190419134236 21 34 8.0 0.0 0.00 0.00 0.00 28 1024.1
20190419133741 21 360 9.7 0.0 0.00 0.00 0.00 26 1024.1
20190419133228 21 51 6.4 0.0 0.00 0.00 0.00 26 1024.1
20190419132734 21 299 4.8 0.0 0.00 0.00 0.00 27 1024.1
20190419132233 22 17 6.4 0.0 0.00 0.00 0.00 26 1024.1
20190419131742 22 32 8.0 0.0 0.00 0.00 0.00 25 1024.1
20190419131247 22 32 6.4 0.0 0.00 0.00 0.00 25 1024.3
20190419130731 22 49 6.4 0.0 0.00 0.00 0.00 26 1024.3
20190419130234 22 37 4.8 0.0 0.00 0.00 0.00 27 1024.3
20190419125732 22 336 4.8 0.0 0.00 0.00 0.00 25 1025.3
20190419125239 22 45 4.8 0.0 0.00 0.00 0.00 24 1025.3
20190419124743 22 48 3.2 0.0 0.00 0.00 0.00 26 1025.3
20190419124247 22 52 3.2 0.0 0.00 0.00 0.00 27 1025.2
20190419123732 22 306 4.8 0.0 0.00 0.00 0.00 25 1025.2
20190419123236 21 360 4.8 0.0 0.00 0.00 0.00 28 1025.2
20190419122736 21 76 6.4 0.0 0.00 0.00 0.00 27 1025.3
20190419122243 21 5 6.4 0.0 0.00 0.00 0.00 30 1025.3
20190419121733 21 348 4.8 0.0 0.00 0.00 0.00 29 1025.3
20190419121234 21 78 4.8 0.0 0.00 0.00 0.00 27 1025.3
20190419120758 21 37 4.8 0.0 0.00 0.00 0.00 30 1025.3
20190419120229 21 331 4.8 0.0 0.00 0.00 0.00 30 1025.3
20190419115729 21 38 4.8 0.0 0.00 0.00 0.00 32 1025.5
20190419115232 21 355 4.8 0.0 0.00 0.00 0.00 32 1025.5
20190419114739 21 54 4.8 0.0 0.00 0.00 0.00 33 1025.5
20190419114239 20 76 4.8 0.0 0.00 0.00 0.00 34 1025.4
20190419113744 20 49 4.8 0.0 0.00 0.00 0.00 35 1025.4
20190419113232 20 88 4.8 0.0 0.00 0.00 0.00 32 1025.4
20190419112742 20 11 4.8 0.0 0.00 0.00 0.00 35 1024.7
20190419112242 20 92 6.4 0.0 0.00 0.00 0.00 36 1024.7
20190419111746 19 64 4.8 0.0 0.00 0.00 0.00 36 1024.7
20190419111236 18 38 4.8 0.0 0.00 0.00 0.00 37 1024.7
20190419110740 18 32 4.8 0.0 0.00 0.00 0.00 33 1024.7
20190419110244 18 55 4.8 0.0 0.00 0.00 0.00 38 1024.7
20190419105733 18 53 6.4 0.0 0.00 0.00 0.00 39 1024.8
20190419105243 18 42 4.8 0.0 0.00 0.00 0.00 40 1024.8
20190419104733 18 64 6.4 0.0 0.00 0.00 0.00 39 1024.8
20190419104234 18 51 6.4 0.0 0.00 0.00 0.00 38 1024.6
20190419103739 18 42 4.8 0.0 0.00 0.00 0.00 39 1024.6
20190419103239 18 52 4.8 0.0 0.00 0.00 0.00 40 1024.6
20190419102742 18 82 4.8 0.0 0.00 0.00 0.00 38 1024.7
20190419102231 18 82 3.2 0.0 0.00 0.00 0.00 45 1024.7
20190419101739 17 12 3.2 0.0 0.00 0.00 0.00 44 1024.7
20190419101302 17 55 4.8 0.0 0.00 0.00 0.00 45 1024.8
20190419100735 17 31 4.8 0.0 0.00 0.00 0.00 46 1024.8
20190419100245 17 54 4.8 0.0 0.00 0.00 0.00 49 1024.8
20190419095726 16 10 4.8 0.0 0.00 0.00 0.00 49 1025.0
20190419095235 16 76 4.8 0.0 0.00 0.00 0.00 50 1025.0
20190419094728 16 355 4.8 0.0 0.00 0.00 0.00 52 1025.0
20190419094228 16 24 4.8 0.0 0.00 0.00 0.00 51 1024.8
20190419093729 16 61 3.2 0.0 0.00 0.00 0.00 51 1024.8
20190419093231 15 24 4.8 0.0 0.00 0.00 0.00 53 1024.8
20190419092743 15 325 6.4 0.0 0.00 0.00 0.00 53 1024.9
20190419092246 15 40 4.8 0.0 0.00 0.00 0.00 53 1024.9
20190419091240 15 57 4.8 0.0 0.00 0.00 0.00 54 1025.0
20190419090735 15 36 3.2 0.0 0.00 0.00 0.00 57 1025.0
20190419090228 14 360 3.2 0.0 0.00 0.00 0.00 56 1025.0
20190419085743 14 63 4.8 0.0 0.00 0.00 0.00 57 1025.1
20190419085231 13 41 4.8 0.0 0.00 0.00 0.00 56 1025.1
20190419084735 13 51 4.8 0.0 0.00 0.00 0.00 61 1025.1
20190419084226 13 360 6.4 0.0 0.00 0.00 0.00 57 1024.9
20190419083732 13 50 4.8 0.0 0.00 0.00 0.00 58 1024.9
20190419083240 13 62 4.8 0.0 0.00 0.00 0.00 59 1024.9
20190419082728 13 22 4.8 0.0 0.00 0.00 0.00 61 1025.0
20190419082239 12 355 4.8 0.0 0.00 0.00 0.00 61 1025.0
20190419081746 12 37 4.8 0.0 0.00 0.00 0.00 61 1025.0